Oshkosh, WI

1:44 AM CDT on August 22, 2017 (GMT -0500)
Wittman Regional

Weather History for KOSH - September, 2013

Change the Weather History Date:

Wednesday, September 18, 2013

  Actual Average Record
Temperature  
Mean Temperature 68 °F -  
Max Temperature 79 °F 70 °F 93 °F (1955)
Min Temperature 57 °F 50 °F 37 °F (1956)
Cooling Degree Days 3    
Growing Degree Days 18 (Base 50)    
Moisture  
Dew Point 60 °F    
Average Humidity 80    
Maximum Humidity 94    
Minimum Humidity 62    
Precipitation  
Precipitation 0.28 in - - ()
Sea Level Pressure  
Sea Level Pressure 29.95 in    
Wind  
Wind Speed 9 mph (South)    
Max Wind Speed 20 mph    
Max Gust Speed 29 mph    
Visibility 8 miles    
Events Rain    
Averages and records for this station are not official NWS values.
T = Trace of Precipitation, MM = Missing Value Source: NWS Daily Summary

Daily Weather History Graph

Daily Weather History Graph

Search for Another Location

Airport or City:

Trip Planner

Search our weather history database for the weather conditions in past years. The results will help you decide how hot, cold, wet, or windy it might be!

Date:

Astronomy

Sep. 18, 2013 Rise Set
Actual Time 6:37 AM CDT 6:58 PM CDT
Civil Twilight 6:08 AM CDT 7:27 PM CDT
Nautical Twilight 5:34 AM CDT 8:01 PM CDT
Astronomical Twilight 4:59 AM CDT 8:36 PM CDT
Moon 6:20 PM CDT (9/18) 5:38 AM CDT (9/18)
Length of Visible Light 13h 19m
Length of Day
12h 21m
Waxing Gibbous, 99% of the Moon is Illuminated
Sep 18
Waxing Gibbous
Sep 19
Full
Sep 26
Last Quarter
Oct 4
New
Oct 11
First Quarter

Hourly Weather History & Observations

Time (CDT) Temp. Dew Point Humidity Pressure Visibility Wind Dir Wind Speed Gust Speed Precip Events Conditions
12:53 AM 57.9 °F 54.0 °F 87% 30.07 in 9.0 mi South 5.8 mph - 0.00 in   Overcast
1:53 AM 60.1 °F 54.0 °F 80% 30.06 in 10.0 mi South 8.1 mph - N/A   Overcast
2:53 AM 61.0 °F 54.0 °F 78% 30.05 in 10.0 mi South 6.9 mph - N/A   Overcast
3:53 AM 60.1 °F 55.9 °F 86% 30.04 in 10.0 mi South 5.8 mph - 0.01 in   Overcast
4:53 AM 59.0 °F 55.0 °F 87% 30.02 in 6.0 mi South 11.5 mph - 0.03 in Rain Light Rain
5:53 AM 59.0 °F 55.9 °F 90% 30.02 in 1.8 mi SSE 8.1 mph - 0.14 in Rain Heavy Rain
6:06 AM 57.2 °F 55.4 °F 94% 30.03 in 2.5 mi South 8.1 mph - 0.05 in Rain Light Rain
6:14 AM 57.2 °F 55.4 °F 94% 30.03 in 3.0 mi South 5.8 mph - 0.08 in Rain Heavy Rain
6:53 AM 59.0 °F 55.0 °F 87% 30.02 in 8.0 mi South 9.2 mph - 0.08 in   Overcast
7:53 AM 59.0 °F 55.9 °F 90% 30.01 in 7.0 mi SSE 8.1 mph - N/A   Overcast
8:53 AM 61.0 °F 57.0 °F 87% 30.01 in 6.0 mi South 8.1 mph - N/A   Overcast
9:53 AM 64.0 °F 59.0 °F 84% 29.99 in 8.0 mi South 10.4 mph - 0.01 in   Overcast
10:53 AM 68.0 °F 59.0 °F 73% 29.97 in 9.0 mi South 13.8 mph - 0.01 in   Overcast
11:53 AM 71.1 °F 61.0 °F 70% 29.95 in 10.0 mi South 12.7 mph - N/A   Mostly Cloudy
12:53 PM 73.9 °F 63.0 °F 68% 29.93 in 10.0 mi South 19.6 mph 28.8 mph N/A   Partly Cloudy
1:53 PM 75.9 °F 64.9 °F 69% 29.91 in 9.0 mi South 15.0 mph - N/A   Scattered Clouds
2:53 PM 78.1 °F 66.0 °F 66% 29.87 in 9.0 mi South 16.1 mph - N/A   Partly Cloudy
3:53 PM 79.0 °F 64.9 °F 62% 29.86 in 10.0 mi South 12.7 mph - N/A   Partly Cloudy
4:53 PM 77.0 °F 64.9 °F 66% 29.85 in 10.0 mi South 17.3 mph - N/A   Clear
5:53 PM 75.9 °F 64.9 °F 69% 29.86 in 10.0 mi South 13.8 mph - N/A   Scattered Clouds
6:53 PM 72.0 °F 64.0 °F 76% 29.86 in 10.0 mi South 11.5 mph - N/A   Clear
7:53 PM 70.0 °F 64.0 °F 81% 29.86 in 8.0 mi South 8.1 mph - N/A   Clear
8:53 PM 68.0 °F 64.0 °F 87% 29.87 in 7.0 mi South 8.1 mph - N/A   Clear
9:53 PM 68.0 °F 64.0 °F 87% 29.86 in 6.0 mi South 5.8 mph - N/A   Clear
10:53 PM 69.1 °F 64.0 °F 84% 29.86 in 8.0 mi South 11.5 mph - N/A   Clear
11:53 PM 69.1 °F 64.0 °F 84% 29.86 in 8.0 mi South 11.5 mph - N/A   Clear